Reflectivity
-20 -20 -20 -20 -20 -20 -20 -20 -20 -20 -20 -20 -20 -20 -20 -20 -20 -20 -20 -20 -20 -20 -20 -20 -20 -20 -20 -20 -20 -20 -20 -20 -20 -20 -20 -20 -20 -20 -20 -20 -20 -20 -20 -20 -20
-20 -20 -20 -20 -20 -20 -20 -20 -20 -20 -20 -20 -20 -20 -20 -20 -20 -20 -20 -20 -20 -20 -20 -20 -20 -20 -20 -20 -20 -20 -20 -20 -20 -20 -20 -20 -20 -20 -20 -20 -20 -20 -20 -20 -20
-20 -20 -20 -20 -20 -20 -20 -20 -20 -20 -20 -20 -20 -20 -20 -20 -20 -20 -20 -20 -20 -20 -20 -20 -20 -20 -20 -20 -20 -20 -20 -20 -20 -20 -20 -20 -20 -20 -20 -20 -20 -20 -20 -20 -20
-20 -20 -20 -20 -20 -20 -20 -20 -20 -20 -20 -20 -20 -20 -20 -20 -20 -20 -20 -20 -20 -20 -20 -20 -20 -20 -20 -20 -20 -20 -20 -20 -20 -20 -20 -20 -20 -20 -20 -20 -20 -20 -20 -20 -20
-20 -20 -20 -20 -20 -20 -20 -20 -20 -20 -20 -20 -20 -20 -20 -20 -20 -20 -20 -20 -20 -20 -20 -20 -20 -20 -20 -20 -20 -20 -20 -20 -20 -20 -20 -20 -20 -20 -20 -20 -20 -20 -20 -20 -20
-20 -20 -20 -20 -20 -20 -20 -20 -20 -20 -20 -20 -20 -20 -20 -20 -20 -20 -20 -20 -20 -20 -20 -20 -20 -20 -20 -20 -20 -20 -20 -20 -20 -20 -20 -20 -20 -20 -20 -20 -20 -20 -20 -20 -20
-20 -20 -20 -20 -20 -20 -20 -20 -20 -20 -20 -20 -20 -20 -20 -20 -20 -20 -20 -20 -20 -20 -20 -20 -20 -20 -20 -20 -20 -20 -20 -20 -20 -20 -20 -20 -20 -20 -20 -20 -20 -20 -20 -20 -20
-20 -20 -20 -20 -20 -20 -20 -20 -20 -20 -20 -20 -20 -20 -20 -20 -20 -20 -20 -20 -20 -20 -20 -20 -20 -20 -20 -20 -20 -20 -20 -20 -20 -20 -20 -20 -20 -20 -20 -20 -20 -20 -20 -20 -20
-20 -20 -20 -20 -20 -20 -20 -20 -20 -20 -20 -20 -20 -20 -20 -20 -20 -20 -20 -20 -20 -20 -20 -20 -20 -20 -20 -20 -20 -20 -20 -20 -20 -20 -20 -20 -20 -20 -20 -20 -20 -20 -20 -20 -20
-20 -20 -20 -20 -20 -20 -20 -20 -20 -20 -20 -20 -20 -20 -20 -20 -20 -20 -20 -20 -20 -20 -20 -20 -20 -20 -20 -20 -20 -20 -20 -20 -20 -20 -20 -20 -20 -20 -20 -20 -20 -20 -20 -20 -20
-20 -20 -20 -20 -20 -20 -20 -20 -20 -20 -20 -20 -20 -20 -20 -20 -20 -20 -20 -20 -20 -20 -20 -20 -20 -20 -20 -20 -20 -20 -20 -20 -20 -20 -20 -20 -20 -20 -20 -20 -20 -20 -20 -20 -20
-20 -20 -20 -20 -20 -20 -20 -20 -20 -20 -20 -20 -20 -20 -20 -20 -20 -20 -20 -20 -20 -20 -20 -20 -20 -20 -20 -20 -20 -20 -20 -20 -20 -20 -20 -20 -20 -20 -20 -20 -20 -20 -20 -20 -20
-20 -20 -20 -20 -20 -20 -20 -20 -20 -20 -20 -20 -20 -20 -20 -20 -20 -20 -20 -20 -20 -20 -20 -20 -20 -20 -20 -20 -20 -20 -20 -20 -20 -20 -20 -20 -20 -20 -20 -20 -20 -20 -20 -20 -20
-20 -20 -20 -20 -20 -20 -20 -20 -20 -20 -20 -20 -20 -20 -20 -20 -20 -20 -20 -20 -20 -20 -20 -20 -20 -20 -20 -20 -20 -20 -20 -20 -20 -20 -20 -20 -20 -20 -20 -20 -20 -20 -20 -20 -20
-20 -20 -20 -20 -20 -20 -20 -20 -20 -20 -20 -20 -20 -20 -20 -20 -20 -20 -20 -20 -20 -20 -20 -20 -20 -20 -20 -20 -20 -20 -20 -20 -20 -20 -20 -20 -20 -20 -20 -20 -20 -20 -20 -20 -20
-20 -20 -20 -20 -20 -20 -20 -20 -20 -20 -20 -20 -20 -20 -20 -20 -20 -20 -20 -20 -20 -20 -20 -20 -20 -20 -20 -20 -20 -20 -20 -20 -20 -20 -20 -20 -20 -20 -20 -20 -20 -20 -20 -20 -20
-20 -20 -20 -20 -20 -20 -20 -20 -20 -20 -20 -20 -20 -20 -20 -20 -20 -20 -20 -20 -20 -20 -20 -20 -20 -20 -20 -20 -20 -20 -20 -20 -20 -20 -20 -20 -20 -20 -20 -20 -20 -20 -20 -20 -20
-20 -20 -20 -20 -20 -20 -20 -20 -20 -20 -20 -20 -20 -20 -20 -20 -20 -20 -20 -20 -20 -20 -20 -20 -20 -20 -20 -20 -20 -20 -20 -20 -20 -20 -20 -20 -20 -20 -20 -20 -20 -20 -20 -20 -20
-20 -20 -20 -20 -20 -20 -20 -20 -20 -20 -20 -20 -20 -20 -20 -20 -20 -20 -20 -20 -20 -20 -20 -20 -20 -20 -20 -20 -20 -20 -20 -20 -20 -20 -20 -20 -20 -20 -20 -20 -20 -20 -20 -20 -20
-20 -20 -20 -20 -20 -20 -20 -20 -20 -20 -20 -20 -20 -20 -20 -20 -20 -20 -20 -20 -20 -20 -20 -20 -20 -20 -20 -20 -20 -20 -20 -20 -20 -20 -20 -20 -20 -20 -20 -20 -20 -20 -20 -20 -20
-20 -18 -20 -13 -12 -20 -20 -20 -20 -20 -20 -20 -20 -20 -20 -20 -20 -20 -20 -20 -20 -20 -20 -20 -20 -20 -20 -20 -20 -20 -20 -20 -20 -20 -20 -20 -20 -20 -20 -20 -20 -20 -20 -20 -20
3 -4 10 16 19 -10 -20 -20 -20 -20 -19 -20 -20 -20 -20 -20 -20 -20 -20 -20 -20 -20 -20 -20 -20 -20 -20 -20 -20 -20 -20 -20 -20 -20 -20 -20 -20 -20 -20 -20 -20 -20 -20 -20 -20
0 -20 -20 -1 -20 -20 2 -9 -20 -20 -12 -20 -20 -20 -20 -20 -20 -20 -20 -20 -20 -20 -20 -20 -20 -20 -20 -20 -20 -20 -20 -20 -20 -20 -20 -20 -20 -20 -20 -20 -20 -20 -20 -20 -20
32 9 7 -20 -20 -20 -19 -20 -20 -18 -18 -8 13 -20 -20 -10 -20 -20 -20 -20 -20 -20 -20 -20 -20 -20 -20 -20 -20 -20 -20 -20 -20 -20 -20 -20 -20 -20 -20 -20 -20 -20 -20 -20 -20
32 21 -13 11 -11 -20 -20 -13 -19 -20 -17 9 13 -13 -2 7 -19 -20 -20 -20 -20 -20 -20 -20 -20 -20 -20 -20 -20 -20 -20 -20 -20 -20 -20 -20 -20 -20 -20 -20 -20 -20 -20 -20 -20
24 21 9 -5 -18 -4 -20 -20 -20 2 2 -2 2 18 16 10 14 -17 -20 -20 -20 -20 -20 -20 -20 -20 -20 -20 -20 -20 -20 -20 -20 -20 -20 -20 -20 -20 -20 -20 -20 -20 -20 -20 -20
14 21 12 15 29 0 5 -6 -20 -10 19 10 15 20 17 13 11 8 -19 -20 -19 -20 -20 -20 -20 -20 -20 -20 -20 -20 -20 -20 -20 -20 -20 -20 -20 -20 -20 -20 -20 -20 -20 -20 -20
Wind_Speed
15 14 14 13 11 9 7 6 6 6 4 4 4 6 9 11 8 8 10 10 13 21 16 6 4 7 3 4 5 3 6 2 2 3 4 4 4 5 7 10 7 7 7 5 4
16 15 15 14 12 9 8 8 7 6 5 4 4 6 9 8 3 9 11 21 21 19 7 6 6 7 4 3 4 6 4 2 1 1 4 4 6 7 4 6 9 9 8 6 5
16 16 15 14 13 10 9 8 8 6 5 5 5 8 11 2 4 6 23 24 21 16 3 1 1 2 4 4 6 4 3 4 4 3 5 5 5 3 8 5 3 8 6 6 8
17 16 16 13 11 10 10 10 9 7 5 5 6 8 7 3 1 4 24 21 17 8 4 5 6 4 4 4 4 7 7 3 2 2 4 4 6 6 5 7 11 10 8 7 10
16 15 14 12 10 9 9 9 8 6 5 5 8 4 2 7 0 6 19 15 6 6 7 3 5 2 4 4 4 6 3 7 7 12 8 9 7 8 10 12 11 11 10 9 8
17 16 14 12 11 11 10 9 8 7 8 7 8 4 3 4 3 7 9 7 7 6 6 7 2 1 5 4 5 4 7 7 4 6 6 10 6 4 5 12 12 11 9 7 8
20 18 17 14 13 12 11 10 8 8 8 7 7 4 8 2 0 8 9 3 6 4 4 3 2 4 2 5 6 7 7 5 2 2 4 13 4 2 14 12 12 11 9 8 7
19 19 19 18 15 14 11 9 11 7 8 7 4 4 3 3 0 8 10 4 7 5 4 7 7 7 5 2 6 3 5 3 1 2 4 1 2 4 11 14 10 8 6 5 6
20 17 18 17 16 14 12 11 11 7 9 3 6 4 1 5 6 6 6 5 8 3 8 5 8 5 7 5 4 6 3 3 1 5 0 3 2 5 8 12 9 6 4 4 3
20 19 18 16 13 13 14 6 9 8 7 2 3 4 6 5 5 6 5 5 5 4 6 10 7 5 6 5 3 5 3 1 3 6 4 2 3 7 6 9 8 6 4 3 4
20 19 18 16 13 13 7 4 5 4 10 3 3 0 2 8 3 8 5 5 4 9 5 6 8 4 1 3 2 3 2 1 2 3 3 3 5 8 6 7 7 5 4 4 4
20 17 16 16 12 8 3 5 3 2 2 1 1 1 2 2 5 13 8 6 7 5 5 6 4 1 4 3 3 4 1 3 3 2 3 2 3 7 8 3 4 5 3 3 5
18 17 16 14 6 5 4 3 4 2 1 1 2 3 3 4 3 9 7 3 5 6 6 5 3 1 3 4 3 2 1 1 3 7 2 5 3 5 2 3 5 3 1 1 4
18 15 16 15 6 1 3 5 4 3 4 2 0 2 4 1 4 2 4 3 7 4 3 5 3 2 3 3 1 1 4 1 3 4 4 4 8 6 6 5 6 5 4 6 7
16 16 14 9 2 3 4 5 4 3 5 3 2 2 3 4 3 7 3 6 4 2 1 1 1 2 2 1 1 1 2 3 1 3 4 1 1 4 6 7 7 8 8 8 7
16 15 10 5 3 2 5 3 3 6 7 3 3 4 4 5 4 5 6 7 4 3 5 3 2 2 2 3 2 4 3 3 2 2 2 3 4 5 6 7 4 5 8 8 7
13 13 4 2 2 4 3 3 6 4 2 2 1 2 2 4 4 6 6 7 3 2 1 1 0 1 2 2 2 4 3 4 6 4 5 2 1 9 6 6 6 8 8 8 6
17 4 3 1 3 3 3 5 1 1 2 1 0 1 2 1 2 1 3 1 1 2 2 2 5 4 2 1 3 2 2 6 6 4 6 5 9 8 7 5 7 6 7 8 8
9 3 2 3 3 3 5 3 7 4 1 1 1 1 2 2 2 1 2 5 5 4 5 4 3 1 2 2 2 3 2 3 6 3 3 4 7 5 3 5 4 8 7 7 7
2 2 2 3 2 4 5 6 4 1 1 0 5 2 4 4 2 3 5 5 5 4 3 4 3 2 3 2 2 2 7 4 2 2 7 5 6 8 4 7 6 7 8 7 6
3 3 1 1 2 5 4 7 3 1 2 3 3 3 5 4 4 4 4 2 4 4 3 4 3 1 2 7 8 5 2 2 3 5 6 5 9 8 9 8 8 9 6 7 8
1 2 0 1 1 1 3 4 1 3 2 3 2 3 5 4 4 4 5 2 5 6 5 2 3 4 6 1 1 3 6 6 5 6 3 3 12 4 7 6 6 7 5 6 6
1 3 1 1 3 3 2 4 4 6 5 4 3 5 1 4 3 5 3 1 6 6 6 6 1 4 3 3 4 3 6 4 4 3 8 6 9 2 3 6 6 5 6 7 7
3 3 1 1 2 6 4 5 4 1 3 4 5 4 3 4 6 3 5 3 5 4 6 6 4 7 7 3 4 5 6 8 7 4 5 15 11 6 7 7 5 6 7 8 8
1 4 1 4 5 5 5 2 4 5 3 4 3 9 8 6 4 6 4 3 2 6 4 4 6 5 7 9 7 10 11 12 16 18 10 11 10 10 5 5 5 5 6 8 5
3 3 2 2 1 6 9 8 10 5 8 6 8 6 10 8 9 8 7 5 7 5 7 4 3 1 5 9 9 13 17 16 17 18 15 18 20 2 2 2 3 6 6 7 7
1 1 2 5 3 5 8 9 13 11 10 7 10 5 10 15 4 3 4 3 7 11 9 7 3 1 5 3 4 11 11 15 4 5 8 8 7 3 2 5 4 7 6 5 9
Wind_Direction
7 6 6 360 358 359 2 8 14 15 360 3 10 3 8 356 4 36 41 329 330 329 331 308 10 354 38 55 42 95 63 118 164 145 140 25 92 39 55 76 50 41 69 91 27
7 5 5 3 3 10 17 12 8 8 357 345 341 343 340 336 54 53 348 341 338 338 348 12 358 357 41 30 24 70 89 126 358 118 127 82 90 121 106 99 94 88 81 80 54
7 5 6 10 17 27 23 18 9 5 355 344 338 329 337 340 69 327 337 336 336 335 247 294 310 24 58 35 9 24 90 144 17 104 111 98 66 57 132 60 79 124 105 67 54
8 5 7 8 15 19 15 7 2 8 10 350 324 327 352 9 276 285 338 331 334 341 40 16 31 45 64 64 39 90 35 70 20 27 79 80 100 66 44 100 113 108 95 79 60
6 5 5 10 5 357 352 353 1 15 25 11 344 306 39 49 356 313 335 329 348 5 46 37 54 65 93 93 88 87 123 54 82 75 59 76 57 108 102 111 109 105 87 71 57
2 1 360 359 359 354 349 346 356 356 352 355 355 59 58 79 290 337 333 334 11 15 21 33 98 107 91 63 63 95 96 128 70 86 112 108 138 94 140 125 112 102 88 77 67
357 357 354 350 348 350 345 344 341 343 346 346 21 71 58 170 26 342 351 337 355 6 29 26 310 86 105 91 155 145 98 109 49 122 116 128 83 99 140 129 110 93 81 68 52
359 356 351 344 336 336 335 342 357 326 321 322 60 65 102 350 274 6 340 326 357 1 14 15 54 86 45 310 48 65 80 131 54 28 171 175 172 160 135 126 119 115 104 79 49
357 353 351 346 337 333 335 333 338 353 359 58 35 76 57 345 23 336 27 343 302 344 29 51 60 70 19 76 42 14 193 196 162 51 266 194 147 141 140 128 127 122 108 93 50
356 349 347 347 345 334 322 301 320 14 353 46 61 47 21 322 308 337 333 359 14 349 20 35 47 69 34 42 236 194 187 286 254 348 5 258 129 132 151 135 138 139 123 74 26
355 350 345 342 339 342 356 6 12 348 39 85 295 138 326 308 309 1 355 349 19 56 37 7 64 54 53 359 357 63 59 258 123 1 327 254 167 176 147 125 145 152 114 53 20
353 348 346 341 335 351 56 71 41 262 0 54 86 52 9 336 4 348 4 56 42 57 337 29 78 181 98 26 75 49 26 320 274 18 345 263 252 157 159 165 164 156 131 38 343
353 347 341 337 347 43 59 50 329 326 43 22 53 40 331 47 72 336 20 44 69 57 14 104 142 196 109 46 52 90 117 88 243 330 279 311 197 169 133 122 151 160 110 343 301
349 350 344 327 50 273 62 323 336 324 22 229 285 348 359 74 57 343 21 74 31 133 88 83 334 100 85 82 50 254 134 87 291 15 260 9 287 220 182 189 203 209 262 270 281
350 347 350 25 187 51 286 312 321 69 346 21 18 310 38 56 347 6 8 34 95 116 150 141 78 102 83 103 108 342 331 277 224 180 18 199 131 290 132 225 225 236 250 259 267
347 347 357 22 26 243 281 306 62 46 264 19 18 353 353 25 12 339 16 35 133 91 49 90 65 50 79 45 299 332 28 73 60 113 347 210 155 254 190 209 239 242 246 253 276
342 342 9 76 274 307 300 44 35 141 110 329 286 65 94 342 20 39 22 10 347 342 218 126 112 91 116 122 328 51 40 322 336 357 248 117 210 251 232 222 209 197 233 251 278
333 6 5 28 302 315 20 48 168 251 195 184 97 54 262 80 147 73 121 146 90 91 102 214 301 170 148 101 158 69 135 153 246 265 283 327 240 261 216 249 244 246 255 275 281
338 354 61 324 313 39 62 49 231 204 148 220 219 233 226 218 207 132 175 196 185 176 169 165 239 138 98 144 167 143 126 144 109 177 17 240 290 314 280 267 248 247 253 261 276
10 41 305 304 8 64 81 240 248 206 136 192 232 191 252 211 211 193 188 170 174 178 194 177 303 213 144 114 42 169 152 90 34 251 265 279 275 241 261 249 252 258 246 271 287
52 1 230 355 55 63 210 227 258 191 153 189 263 263 240 231 209 232 216 168 172 148 129 141 140 152 90 200 174 152 185 106 115 158 193 295 259 213 194 206 222 238 238 260 282
95 318 278 304 36 63 216 206 124 209 192 234 245 240 213 196 231 253 238 268 157 149 159 182 137 224 216 51 330 188 189 161 149 236 216 147 274 208 209 217 208 235 264 283 275
191 244 37 165 223 223 263 274 229 170 203 181 239 214 116 218 245 197 213 47 154 153 171 182 179 337 286 0 351 210 195 176 106 100 198 148 261 255 261 256 236 241 278 288 290
142 275 270 77 190 162 205 221 225 170 250 204 195 144 150 223 214 244 202 189 187 164 177 159 181 202 209 224 142 212 207 199 171 170 197 226 262 239 253 228 235 279 271 279 283
236 227 87 213 236 176 158 171 190 217 244 205 248 216 178 210 199 225 147 145 187 213 158 159 224 202 261 260 230 234 238 204 212 225 220 269 245 272 260 225 240 260 286 304 309
188 200 345 289 146 157 179 203 202 185 157 225 228 196 200 213 199 186 144 187 193 160 159 191 266 99 251 258 263 258 242 232 232 238 251 265 277 169 142 230 251 280 287 303 309
56 177 119 151 196 169 202 200 208 142 216 205 204 189 213 226 174 141 152 147 162 163 175 164 194 100 264 354 339 283 248 213 187 193 208 227 240 162 247 281 288 282 288 305 312